Weather in Teterinskoye

Russia / Kostroma Oblast     57°30′16″N   40°35′22″E
temp.,
°C
wind,
m/s
gust,
m/s
humid.,
%
clouds,
%
prec.,
mm/h
press.,
hPa
HPBL,
m
11 may, tue
tue1100:00+6ne33715 0.0 102826
03:00+4ene33815 0.0 103025
06:00+6ene25808 0.0 1030148
09:00+12ene46615 0.0 1030555
12:00+16ene46483 0.0 1029898
15:00+18e45430 0.0 1028957
18:00+17e34595 0.0 1028167
21:00+11e33711 0.0 102933
12 may, wed
wed1200:00+10ese33740 0.0 102943
03:00+10e22890 0.0 102916
06:00+11ene358948 0.0 1029135
09:00+17e467388 0.0 1028407
12:00+21e576295 0.0 1026945
15:00+22e6106051 0.1 10251686
18:00+20ese6116637 0.8 1023476
21:00+15ese4118673 1.8 1024235
13 may, thu
thu1300:00+14se4108514 0.0 1025259
03:00+12ese349181 0.0 102561
06:00+13e498937 0.0 1024248
09:00+17ese6127490 0.0 1023620
12:00+20ese8126145 0.0 10221025
15:00+21ese7106191 0.1 10201579
18:00+16ssw2389100 1.4 1019140
21:00+14ese249697 3.0 1018153
14 may, fri
fri1400:00+14se4897100 0.3 1018355
03:00+13s3698100 0.4 1018251
06:00+14sw359696 0.1 1018324
09:00+16sw458232 0.1 1018655
12:00+19sw456227 0.1 10181336
15:00+21ssw455395 0.1 10181778
18:00+19ssw356956 0.1 1017226
21:00+15se228083 0.1 101611
15 may, sat
sat1500:00+14sse41189100 0.4 1017264
03:00+14ese5109493 1.6 1015259
06:00+15se5139278 0.8 1014417
09:00+19se578491 1.5 1013491
12:00+22se5672100 0.0 1012757
15:00+23sse5867100 0.1 10101150
18:00
21:00+15s4119325 4.6 1009231